H1 CPF 2 NER 2025 9 6 9 249 01 glonass139 H2 1808601 9139 43687 2025 9 6 0 0 0 2025 9 9 23 45 0 900 1 1 0 0 0 1 H9 10 0 60924 0.00000 0 20590855.853 7606407.887 13006641.709 10 0 60924 900.00000 0 21827365.155 8335504.190 10244815.573 10 0 60924 1800.00000 0 22811367.702 8792458.871 7284070.740 10 0 60924 2700.00000 0 23493959.958 9006694.198 4181841.903 10 0 60924 3600.00000 0 23835287.593 9017138.989 998357.031 10 0 60924 4500.00000 0 23806286.041 8870341.343 -2204531.627 10 0 60924 5400.00000 0 23389988.784 8618263.855 -5364551.971 10 0 60924 6300.00000 0 22582346.803 8315854.917 -8420228.066 10 0 60924 7200.00000 0 21392523.140 8018499.546 -11312083.318 10 0 60924 8100.00000 0 19842648.702 7779458.552 -13983806.539 10 0 60924 9000.00000 0 17967048.246 7647405.589 -16383357.261 10 0 60924 9900.00000 0 15810968.053 7664167.580 -18463987.830 10 0 60924 10800.00000 0 13428857.914 7862765.435 -20185161.622 10 0 60924 11700.00000 0 10882278.983 8265839.189 -21513348.904 10 0 60924 12600.00000 0 8237524.904 8884525.277 -22422684.395 10 0 60924 13500.00000 0 5563055.602 9717834.367 -22895473.559 10 0 60924 14400.00000 0 2926850.955 10752556.859 -22922537.730 10 0 60924 15300.00000 0 393794.801 11963700.638 -22503391.433 10 0 60924 16200.00000 0 -1976801.745 13315443.091 -21646248.661 10 0 60924 17100.00000 0 -4133434.754 14762557.539 -20367858.225 10 0 60924 18000.00000 0 -6034307.112 16252254.094 -18693171.674 10 0 60924 18900.00000 0 -7648815.044 17726357.397 -16654850.583 10 0 60924 19800.00000 0 -8958560.708 19123729.417 -14292623.133 10 0 60924 20700.00000 0 -9957850.126 20382835.084 -11652502.963 10 0 60924 21600.00000 0 -10653657.480 21444342.506 -8785885.951 10 0 60924 22500.00000 0 -11065059.327 22253648.134 -5748543.053 10 0 60924 23400.00000 0 -11222164.633 22763220.386 -2599529.415 10 0 60924 24300.00000 0 -11164587.728 22934663.145 599968.411 10 0 60924 25200.00000 0 -10939530.437 22740412.385 3787824.187 10 0 60924 26100.00000 0 -10599555.875 22164994.902 6902178.978 10 0 60924 27000.00000 0 -10200149.110 21205796.615 9882639.705 10 0 60924 27900.00000 0 -9797168.479 19873308.652 12671445.984 10 0 60924 28800.00000 0 -9444295.516 18190841.285 15214582.842 10 0 60924 29700.00000 0 -9190591.043 16193718.000 17462818.308 10 0 60924 30600.00000 0 -9078260.151 13927983.424 19372646.651 10 0 60924 31500.00000 0 -9140719.659 11448678.780 20907119.981 10 0 60924 32400.00000 0 -9401048.795 8817756.174 22036553.327 10 0 60924 33300.00000 0 -9870887.748 6101717.465 22739090.671 10 0 60924 34200.00000 0 -10549830.081 3369074.627 23001122.012 10 0 60924 35100.00000 0 -11425334.599 687735.463 22817544.130 10 0 60924 36000.00000 0 -12473160.861 -1877578.518 22191860.435 10 0 60924 36900.00000 0 -13658310.964 -4267776.646 21136117.937 10 0 60924 37800.00000 0 -14936439.373 -6431606.195 19670682.160 10 0 60924 38700.00000 0 -16255673.160 -8327531.819 17823853.536 10 0 60924 39600.00000 0 -17558767.880 -9925210.268 15631331.611 10 0 60924 40500.00000 0 -18785510.064 -11206499.772 13135536.151 10 0 60924 41400.00000 0 -19875266.672 -12165962.507 10384796.976 10 0 60924 42300.00000 0 -20769575.140 -12810839.322 7432427.006 10 0 60924 43200.00000 0 -21414665.388 -13160497.875 4335695.508 10 0 60924 44100.00000 0 -21763807.423 -13245377.303 1154720.762 10 0 60924 45000.00000 0 -21779384.853 -13105473.809 -2048696.596 10 0 60924 45900.00000 0 -21434605.817 -12788431.106 -5212276.814 10 0 60924 46800.00000 0 -20714777.654 -12347316.615 -8274477.038 10 0 60924 47700.00000 0 -19618089.954 -11838177.867 -11175695.668 10 0 60924 48600.00000 0 -18155871.271 -11317483.217 -13859440.784 10 0 60924 49500.00000 0 -16352307.063 -10839556.016 -16273438.932 10 0 60924 50400.00000 0 -14243629.342 -10454111.864 -18370661.740 10 0 60924 51300.00000 0 -11876810.870 -10204004.213 -20110249.622 10 0 60924 52200.00000 0 -9307817.861 -10123274.686 -21458313.964 10 0 60924 53100.00000 0 -6599493.752 -10235591.487 -22388601.748 10 0 60924 54000.00000 0 -3819162.243 -10553142.659 -22883009.488 10 0 60924 54900.00000 0 -1036049.488 -11076031.501 -22931936.443 10 0 60924 55800.00000 0 1681367.069 -11792200.105 -22534470.283 10 0 60924 56700.00000 0 4267972.829 -12677884.400 -21698401.825 10 0 60924 57600.00000 0 6664484.458 -13698581.576 -20440068.751 10 0 60924 58500.00000 0 8819670.116 -14810488.962 -18784031.651 10 0 60924 59400.00000 0 10692229.663 -15962353.409 -16762589.002 10 0 60924 60300.00000 0 12252257.385 -17097652.915 -14415140.870 10 0 60924 61200.00000 0 13482227.473 -18157018.024 -11787414.152 10 0 60924 62100.00000 0 14377462.649 -19080790.499 -8930564.907 10 0 60924 63000.00000 0 14946068.229 -19811610.970 -5900175.795 10 0 60924 63900.00000 0 15208336.363 -20296926.086 -2755168.740 10 0 60924 64800.00000 0 15195647.606 -20491309.264 443345.408 10 0 60924 65700.00000 0 14948918.013 -20358497.136 3633257.276 10 0 60924 66600.00000 0 14516658.944 -19873055.988 6752665.823 10 0 60924 67500.00000 0 13952732.820 -19021608.219 9741077.889 10 0 60924 68400.00000 0 13313900.500 -17803567.529 12540577.160 10 0 60924 69300.00000 0 12657264.292 -16231352.183 15096940.058 10 0 60924 70200.00000 0 12037714.517 -14330067.601 17360677.489 10 0 60924 71100.00000 0 11505486.928 -12136671.453 19287983.116 10 0 60924 72000.00000 0 11103933.224 -9698655.875 20841570.777 10 0 60924 72900.00000 0 10867597.682 -7072301.083 21991386.046 10 0 60924 73800.00000 0 10820679.915 -4320572.091 22715179.293 10 0 60924 74700.00000 0 10975947.656 -1510744.690 22998930.197 10 0 60924 75600.00000 0 11334144.749 1288142.343 22837116.264 10 0 60924 76500.00000 0 11883919.128 4007904.823 22232820.594 10 0 60924 77400.00000 0 12602274.144 6583793.724 21197676.811 10 0 60924 78300.00000 0 13455525.029 8956933.398 19751651.840 10 0 60924 79200.00000 0 14400721.436 11076517.763 17922669.924 10 0 60924 80100.00000 0 15387477.584 12901674.405 15746084.082 10 0 60924 81000.00000 0 16360134.423 14402919.937 13264003.950 10 0 60924 81900.00000 0 17260164.088 15563146.509 10524491.710 10 0 60924 82800.00000 0 18028716.336 16378098.504 7580640.446 10 0 60924 83700.00000 0 18609200.164 16856319.477 4489551.822 10 0 60924 84600.00000 0 18949791.769 17018571.480 1311232.190 10 0 60924 85500.00000 0 19005762.523 16896750.996 -1892571.698 10 0 60925 0.00000 0 18741527.718 16532347.116 -5059574.415 10 0 60925 900.00000 0 18132328.029 15974506.822 -8128168.937 10 0 60925 1800.00000 0 17165471.435 15277789.860 -11038630.429 10 0 60925 2700.00000 0 15841080.976 14499707.916 -13734288.117 10 0 60925 3600.00000 0 14172315.227 13698153.231 -16162637.230 10 0 60925 4500.00000 0 12185050.458 12928826.047 -18276370.149 10 0 60925 5400.00000 0 9917036.348 12242770.537 -20034305.580 10 0 60925 6300.00000 0 7416559.454 11684124.203 -21402197.100 10 0 60925 7200.00000 0 4740669.542 11288176.600 -22353404.842 10 0 60925 8100.00000 0 1953042.348 11079819.948 -22869417.065 10 0 60925 9000.00000 0 -878432.385 11072457.407 -22940211.411 10 0 60925 9900.00000 0 -3684237.147 11267415.274 -22564448.877 10 0 60925 10800.00000 0 -6395879.544 11653883.829 -21749496.938 10 0 60925 11700.00000 0 -8948501.468 12209389.097 -20511281.596 10 0 60925 12600.00000 0 -11283336.120 12900775.213 -18873971.516 10 0 60925 13500.00000 0 -13349910.961 13685655.399 -16869500.716 10 0 60925 14400.00000 0 -15107905.468 14514269.728 -14536939.425 10 0 60925 15300.00000 0 -16528587.130 15331670.576 -11921725.790 10 0 60925 16200.00000 0 -17595766.990 16080142.831 -9074773.830 10 0 60925 17100.00000 0 -18306236.335 16701756.028 -6051475.536 10 0 60925 18000.00000 0 -18669668.020 17140940.095 -2910617.151 10 0 60925 18900.00000 0 -18707988.497 17346975.502 286768.673 10 0 60925 19800.00000 0 -18454248.896 17276292.425 3478591.960 10 0 60925 20700.00000 0 -17951044.455 16894481.795 6602912.093 10 0 60925 21600.00000 0 -17248550.445 16177933.459 9599138.360 10 0 60925 22500.00000 0 -16402258.507 15115032.574 12409201.015 10 0 60925 23400.00000 0 -15470509.553 13706864.063 14978670.314 10 0 60925 24300.00000 0 -14511927.437 11967395.602 17257802.369 10 0 60925 25200.00000 0 -13582861.220 9923131.371 19202492.415 10 0 60925 26100.00000 0 -12734943.072 7612250.714 20775117.978 10 0 60925 27000.00000 0 -12012863.588 5083267.006 21945256.868 10 0 60925 27900.00000 0 -11452456.892 2393261.603 22690267.208 10 0 60925 28800.00000 0 -11079174.892 -394234.951 22995719.360 10 0 60925 29700.00000 0 -10907013.787 -3211628.037 22855672.148 10 0 60925 30600.00000 0 -10937937.241 -5989813.179 22272788.520 10 0 60925 31500.00000 0 -11161820.187 -8660795.234 21258288.409 10 0 60925 32400.00000 0 -11556915.759 -11160265.686 19831739.369 10 0 60925 33300.00000 0 -12090826.336 -13430032.697 18020688.217 10 0 60925 34200.00000 0 -12721938.739 -15420204.273 15860139.754 10 0 60925 35100.00000 0 -13401264.274 -17091034.719 13391891.394 10 0 60925 36000.00000 0 -14074607.219 -18414358.068 10663735.219 10 0 60925 36900.00000 0 -14684971.277 -19374548.879 7728541.726 10 0 60925 37800.00000 0 -15175103.101 -19968970.203 4643241.994 10 0 60925 38700.00000 0 -15490065.688 -20207889.715 1467727.297 10 0 60925 39600.00000 0 -15579732.610 -20113867.199 -1736312.765 10 0 60925 40500.00000 0 -15401096.917 -19720638.904 -4906590.984 10 0 60925 41400.00000 0 -14920295.833 -19071545.575 -7981438.384 10 0 60925 42300.00000 0 -14114264.147 -18217570.514 -10901010.802 10 0 60925 43200.00000 0 -12971944.621 -17215070.698 -13608461.840 10 0 60925 44100.00000 0 -11495002.435 -16123297.232 -16051058.467 10 0 60925 45000.00000 0 -9698011.691 -15001810.461 -18181216.558 10 0 60925 45900.00000 0 -7608104.382 -13907899.593 -19957435.465 10 0 60925 46800.00000 0 -5264095.058 -12894116.460 -21345112.779 10 0 60925 47700.00000 0 -2715116.691 -12006028.101 -22317223.008 10 0 60925 48600.00000 0 -18823.914 -11280283.429 -22854846.721 10 0 60925 49500.00000 0 2760761.945 -10743075.697 -22947539.847 10 0 60925 50400.00000 0 5555676.435 -10409065.609 -22593535.984 10 0 60925 51300.00000 0 8296603.387 -10280810.160 -21799777.971 10 0 60925 52200.00000 0 10915526.303 -10348720.819 -20581778.338 10 0 60925 53100.00000 0 13348329.410 -10591552.108 -18963311.607 10 0 60925 54000.00000 0 15537240.251 -10977399.143 -16975944.746 10 0 60925 54900.00000 0 17433012.430 -11465161.108 -14658415.231 10 0 60925 55800.00000 0 18996758.035 -12006407.890 -12055869.247 10 0 60925 56700.00000 0 20201354.183 -12547570.057 -9218975.315 10 0 60925 57600.00000 0 21032366.081 -13032358.730 -6202931.119 10 0 60925 58500.00000 0 21488449.388 -13404312.261 -3066383.481 10 0 60925 59400.00000 0 21581216.737 -13609361.369 129716.881 10 0 60925 60300.00000 0 21334575.761 -13598303.891 3323302.984 10 0 60925 61200.00000 0 20783568.201 -13329084.208 6452397.974 10 0 60925 62100.00000 0 19972760.550 -12768781.060 9456316.555 10 0 60925 63000.00000 0 18954255.192 -11895219.840 12276838.058 10 0 60925 63900.00000 0 17785406.702 -10698141.546 14859328.562 10 0 60925 64800.00000 0 16526339.796 -9179879.251 17153790.849 10 0 60925 65700.00000 0 15237373.257 -7355513.574 19115822.648 10 0 60925 66600.00000 0 13976457.606 -5252500.317 20707465.610 10 0 60925 67500.00000 0 12796733.194 -2909785.252 21897929.749 10 0 60925 68400.00000 0 11744310.024 -376441.976 22664180.504 10 0 60925 69300.00000 0 10856361.099 2290111.638 22991378.103 10 0 60925 70200.00000 0 10159607.969 5026245.841 22873161.544 10 0 60925 71100.00000 0 9669260.846 7764513.446 22311772.189 10 0 60925 72000.00000 0 9388456.932 10436208.770 21318014.603 10 0 60925 72900.00000 0 9308220.130 12973986.737 19911055.075 10 0 60925 73800.00000 0 9407943.806 15314435.101 18118060.932 10 0 60925 74700.00000 0 9656376.714 17400494.316 15973686.564 10 0 60925 75600.00000 0 10013071.267 19183625.456 13519414.846 10 0 60925 76500.00000 0 10430233.963 20625636.549 10802765.355 10 0 60925 77400.00000 0 10854900.750 21700091.336 7876383.513 10 0 60925 78300.00000 0 11231346.114 22393241.480 4797027.253 10 0 60925 79200.00000 0 11503624.393 22704442.865 1624470.178 10 0 60925 80100.00000 0 11618135.771 22646037.974 -1579657.846 10 0 60925 81000.00000 0 11526107.808 22242708.853 -4753070.074 10 0 60925 81900.00000 0 11185886.486 21530327.405 -7834038.544 10 0 60925 82800.00000 0 10564938.443 20554351.254 -10762601.666 10 0 60925 83700.00000 0 9641478.015 19367832.744 -13481739.381 10 0 60925 84600.00000 0 8405648.465 18029125.234 -15938492.079 10 0 60925 85500.00000 0 6860205.597 16599383.839 -18085000.552 10 0 60926 0.00000 0 5020673.281 15139966.628 -19879445.801 10 0 60926 900.00000 0 2914961.564 13709845.613 -21286870.660 10 0 60926 1800.00000 0 582464.491 12363139.073 -22279864.491 10 0 60926 2700.00000 0 -1927329.034 11146866.902 -22839100.586 10 0 60926 3600.00000 0 -4556651.697 10099025.571 -22953713.290 10 0 60926 4500.00000 0 -7241627.171 9247062.824 -22621508.601 10 0 60926 5400.00000 0 -9914702.126 8606816.065 -21849004.148 10 0 60926 6300.00000 0 -12507239.643 8181958.414 -20651298.002 10 0 60926 7200.00000 0 -14952166.010 7963974.870 -19051769.141 10 0 60926 8100.00000 0 -17186560.653 7932668.483 -17081615.690 10 0 60926 9000.00000 0 -19154081.426 8057173.944 -14779240.260 10 0 60926 9900.00000 0 -20807124.340 8297434.547 -12189494.727 10 0 60926 10800.00000 0 -22108628.124 8606078.838 -9362799.629 10 0 60926 11700.00000 0 -23033448.990 8930616.433 -6354155.788 10 0 60926 12600.00000 0 -23569249.124 9215859.054 -3222068.062 10 0 60926 13500.00000 0 -23716863.005 9406463.426 -27402.726 10 0 60926 14400.00000 0 -23490127.699 9449487.782 3167798.686 10 0 60926 15300.00000 0 -22915185.785 9296853.312 6301525.488 10 0 60926 16200.00000 0 -22029291.756 8907606.257 9313000.143 10 0 60926 17100.00000 0 -20879173.349 8249884.993 12143853.337 10 0 60926 18000.00000 0 -19519017.683 7302509.140 14739249.159 10 0 60926 18900.00000 0 -18008167.438 6056123.815 17048939.108 10 0 60926 19800.00000 0 -16408623.886 4513850.825 19028225.275 10 0 60926 20700.00000 0 -14782461.232 2691419.300 20638815.058 10 0 60926 21600.00000 0 -13189259.816 616769.754 21849552.008 10 0 60926 22500.00000 0 -11683664.560 -1670852.712 22637009.886 10 0 60926 23400.00000 0 -10313169.471 -4122279.387 22985939.441 10 0 60926 24300.00000 0 -9116219.417 -6680217.107 22889560.146 10 0 60926 25200.00000 0 -8120707.179 -9281392.505 22349691.708 10 0 60926 26100.00000 0 -7342927.485 -11858954.100 21376722.897 10 0 60926 27000.00000 0 -6787030.906 -14345034.320 19989417.958 10 0 60926 27900.00000 0 -6445000.005 -16673366.796 18214563.595 10 0 60926 28800.00000 0 -6297148.605 -18781851.590 16086462.310 10 0 60926 29700.00000 0 -6313123.401 -20614962.764 13646280.641 10 0 60926 30600.00000 0 -6453366.248 -22125898.707 10941263.571 10 0 60926 31500.00000 0 -6670976.020 -23278385.730 8023829.096 10 0 60926 32400.00000 0 -6913892.006 -24048059.446 4950559.455 10 0 60926 33300.00000 0 -7127306.899 -24423365.636 1781107.853 10 0 60926 34200.00000 0 -7256207.297 -24405942.143 -1422958.444 10 0 60926 35100.00000 0 -7247933.827 -24010465.030 -4599356.120 10 0 60926 36000.00000 0 -7054651.669 -23263964.765 -7686301.277 10 0 60926 36900.00000 0 -6635625.660 -22204640.645 -10623718.004 10 0 60926 37800.00000 0 -5959202.178 -20880223.060 -13354415.663 10 0 60926 38700.00000 0 -5004412.199 -19345952.474 -15825211.065 10 0 60926 39600.00000 0 -3762125.924 -17662260.391 -17987972.723 10 0 60926 40500.00000 0 -2235708.373 -15892250.263 -19800566.067 10 0 60926 41400.00000 0 -441146.544 -14099084.741 -21227680.617 10 0 60926 42300.00000 0 1593358.826 -12343389.608 -22241522.522 10 0 60926 43200.00000 0 3828321.098 -10680783.814 -22822358.804 10 0 60926 44100.00000 0 6214377.400 -9159639.504 -22958902.652 10 0 60926 45000.00000 0 8694121.870 -7819166.028 -22648532.303 10 0 60926 45900.00000 0 11204286.401 -6687897.945 -21897339.472 10 0 60926 46800.00000 0 13678178.103 -5782649.840 -20720006.571 10 0 60926 47700.00000 0 16048271.841 -5107980.828 -19139515.365 10 0 60926 48600.00000 0 18248849.672 -4656190.042 -17186693.044 10 0 60926 49500.00000 0 20218577.060 -4407841.787 -14899604.844 10 0 60926 50400.00000 0 21902908.319 -4332796.723 -12322805.434 10 0 60926 51300.00000 0 23256221.027 -4391703.914 -9506464.098 10 0 60926 52200.00000 0 24243590.583 -4537889.245 -6505381.243 10 0 60926 53100.00000 0 24842131.319 -4719558.909 -3377915.985 10 0 60926 54000.00000 0 25041848.902 -4882223.567 -184846.294 10 0 60926 54900.00000 0 24845969.456 -4971239.602 3011815.556 10 0 60926 55800.00000 0 24270732.874 -4934359.207 6150028.666 10 0 60926 56700.00000 0 23344660.332 -4724180.982 9168926.555 10 0 60926 57600.00000 0 22107327.976 -4300397.214 12009994.134 10 0 60926 58500.00000 0 20607699.280 -3631742.921 14618195.886 10 0 60926 59400.00000 0 18902086.716 -2697564.497 16943033.890 10 0 60926 60300.00000 0 17051828.431 -1488941.951 18939515.951 10 0 60926 61200.00000 0 15120777.071 -9317.514 20569016.069 10 0 60926 62100.00000 0 13172705.161 1725396.108 21800011.751 10 0 60926 63000.00000 0 11268734.447 3687232.967 22608685.065 10 0 60926 63900.00000 0 9464895.244 5837100.144 22979376.896 10 0 60926 64800.00000 0 7809916.127 8126175.737 22904886.427 10 0 60926 65700.00000 0 6343334.654 10497721.946 22386610.603 10 0 60926 66600.00000 0 5094006.535 12889239.580 21434520.962 10 0 60926 67500.00000 0 4079074.274 15234876.247 20066977.958 10 0 60926 68400.00000 0 3303437.478 17467989.867 18310385.657 10 0 60926 69300.00000 0 2759746.474 19523762.374 16198692.419 10 0 60926 70200.00000 0 2428919.259 21341756.016 13772745.994 10 0 60926 71100.00000 0 2281160.171 22868306.469 11079514.151 10 0 60926 72000.00000 0 2277437.678 24058653.195 8171184.710 10 0 60926 72900.00000 0 2371359.291 24878717.833 5104161.368 10 0 60926 73800.00000 0 2511364.715 25306455.664 1937974.022 10 0 60926 74700.00000 0 2643144.538 25332722.659 -1265875.575 10 0 60926 75600.00000 0 2712181.829 24961620.768 -4445110.389 10 0 60926 76500.00000 0 2666308.391 24210305.951 -7537893.306 10 0 60926 77400.00000 0 2458166.427 23108266.150 -10484036.598 10 0 60926 78300.00000 0 2047470.003 21696098.908 -13226181.295 10 0 60926 79200.00000 0 1402969.056 20023839.610 -15710922.567 10 0 60926 80100.00000 0 504031.104 18148910.532 -17889858.273 10 0 60926 81000.00000 0 -658227.914 16133776.963 -19720539.447 10 0 60926 81900.00000 0 -2080313.164 14043409.097 -21167303.629 10 0 60926 82800.00000 0 -3746248.951 11942656.598 -22201974.298 10 0 60926 83700.00000 0 -5628010.999 9893646.218 -22804412.631 10 0 60926 84600.00000 0 -7686475.989 7953311.740 -22962910.746 10 0 60926 85500.00000 0 -9872849.442 6171159.698 -22674418.853 10 0 60927 0.00000 0 -12130512.577 4587364.277 -21944602.160 10 0 60927 900.00000 0 -14397212.471 3231269.739 -20787726.167 10 0 60927 1800.00000 0 -16607501.060 2120364.245 -19226373.924 10 0 60927 2700.00000 0 -18695325.049 1259764.029 -17290999.730 10 0 60927 3600.00000 0 -20596655.409 642230.172 -15019329.146 10 0 60927 4500.00000 0 -22252047.576 248714.686 -12455617.085 10 0 60927 5400.00000 0 -23609025.052 49411.225 -9649778.875 10 0 60927 6300.00000 0 -24624186.760 5264.292 -6656411.721 10 0 60927 7200.00000 0 -25264950.165 69871.502 -3533726.213 10 0 60927 8100.00000 0 -25510857.690 191696.951 -342409.264 10 0 60927 9000.00000 0 -25354392.372 316500.775 2855558.805 10 0 60927 9900.00000 0 -24801269.513 389881.120 5998109.493 10 0 60927 10800.00000 0 -23870193.146 359820.275 9024289.909 10 0 60927 11700.00000 0 -22592088.564 179126.924 11875441.597 10 0 60927 12600.00000 0 -21008844.040 -192328.812 14496331.694 10 0 60927 13500.00000 0 -19171615.153 -785681.808 16836214.916 10 0 60927 14400.00000 0 -17138763.014 -1621521.232 18849806.577 10 0 60927 15300.00000 0 -14973512.577 -2708787.826 20498148.771 10 0 60927 16200.00000 0 -12741428.311 -4044165.610 21749354.086 10 0 60927 17100.00000 0 -10507811.641 -5611993.827 22579213.664 10 0 60927 18000.00000 0 -8335127.373 -7384703.522 22971658.892 10 0 60927 18900.00000 0 -6280564.814 -9323761.530 22919068.680 10 0 60927 19800.00000 0 -4393833.484 -11381083.901 22422416.888 10 0 60927 20700.00000 0 -2715283.669 -13500861.439 21491257.178 10 0 60927 21600.00000 0 -1274428.646 -15621723.083 20143545.287 10 0 60927 22500.00000 0 -88929.022 -17679148.807 18405301.429 10 0 60927 23400.00000 0 835919.241 -19608033.061 16310118.333 10 0 60927 24300.00000 0 1507172.270 -21345293.235 13898523.207 10 0 60927 25200.00000 0 1943701.940 -22832415.164 11217204.590 10 0 60927 26100.00000 0 2175158.270 -24017829.750 8318117.877 10 0 60927 27000.00000 0 2240474.091 -24859021.201 5257485.765 10 0 60927 27900.00000 0 2185974.915 -25324278.076 2094712.228 10 0 60927 28800.00000 0 2063173.786 -25394012.767 -1108769.226 10 0 60927 29700.00000 0 1926344.570 -25061592.935 -4290690.671 10 0 60927 30600.00000 0 1829976.895 -24333648.701 -7389164.648 10 0 60927 31500.00000 0 1826221.321 -23229841.503 -10343894.513 10 0 60927 32400.00000 0 1962434.060 -21782103.309 -13097355.832 10 0 60927 33300.00000 0 2278926.591 -20033377.348 -15595924.920 10 0 60927 34200.00000 0 2807016.938 -18035912.787 -17790931.599 10 0 60927 35100.00000 0 3567466.620 -15849184.719 -19639614.872 10 0 60927 36000.00000 0 4569370.908 -13537526.699 -21105962.312 10 0 60927 36900.00000 0 5809550.734 -11167575.228 -22161416.317 10 0 60927 37800.00000 0 7272473.202 -8805633.410 -22785433.326 10 0 60927 38700.00000 0 8930705.233 -6515064.198 -22965884.982 10 0 60927 39600.00000 0 10745882.192 -4353822.313 -22699293.560 10 0 60927 40500.00000 0 12670151.493 -2372227.757 -21990897.199 10 0 60927 41400.00000 0 14648031.110 -611073.460 -20854543.907 10 0 60927 42300.00000 0 16618605.256 899854.588 -19312416.650 10 0 60927 43200.00000 0 18517965.273 2142783.991 -17394595.143 10 0 60927 44100.00000 0 20281793.381 3112448.691 -15138463.184 10 0 60927 45000.00000 0 21847980.794 3816048.876 -12587973.433 10 0 60927 45900.00000 0 23159170.328 4272681.615 -9792784.394 10 0 60927 46800.00000 0 24165116.789 4512268.233 -6807286.871 10 0 60927 47700.00000 0 24824766.158 4574025.555 -3689539.469 10 0 60927 48600.00000 0 25107966.553 4504547.379 -500134.437 10 0 60927 49500.00000 0 24996739.591 4355578.850 2698983.487 10 0 60927 50400.00000 0 24486059.393 4181579.093 5845721.736 10 0 60927 51300.00000 0 23584107.279 4037176.154 8879044.296 10 0 60927 52200.00000 0 22311992.280 3974622.429 11740152.335 10 0 60927 53100.00000 0 20702949.915 4041358.372 14373618.235 10 0 60927 54000.00000 0 18801053.383 4277787.331 16728451.523 10 0 60927 54900.00000 0 16659491.376 4715355.161 18759076.776 10 0 60927 55800.00000 0 14338484.447 5375015.219 20426205.515 10 0 60927 56700.00000 0 11902926.421 6266143.112 21697586.353 10 0 60927 57600.00000 0 9419848.273 7385946.776 22548620.055 10 0 60927 58500.00000 0 6955808.890 8719396.914 22962828.694 10 0 60927 59400.00000 0 4574319.716 10239681.373 22932170.693 10 0 60927 60300.00000 0 2333408.713 11909165.516 22457196.220 10 0 60927 61200.00000 0 283423.248 13680819.813 21547040.055 10 0 60927 62100.00000 0 -1534838.328 15500056.667 20219251.805 10 0 60927 63000.00000 0 -3091590.022 17306901.481 18499466.047 10 0 60927 63900.00000 0 -4369056.550 19038408.959 16420917.761 10 0 60927 64800.00000 0 -5361965.799 20631225.110 14023811.196 10 0 60927 65700.00000 0 -6077515.272 22024188.924 11354553.024 10 0 60927 66600.00000 0 -6534814.101 23160865.409 8464863.412 10 0 60927 67500.00000 0 -6763824.096 23991903.974 5410781.134 10 0 60927 68400.00000 0 -6803844.348 24477122.821 2251581.255 10 0 60927 69300.00000 0 -6701603.291 24587230.965 -951373.969 10 0 60927 70200.00000 0 -6509038.971 24305114.332 -4135828.678 10 0 60927 71100.00000 0 -6280861.739 23626630.496 -7239847.926 10 0 60927 72000.00000 0 -6072003.200 22560877.144 -10203028.828 10 0 60927 72900.00000 0 -5935060.322 21129921.663 -12967683.930 10 0 60927 73800.00000 0 -5917844.092 19368002.004 -15479972.866 10 0 60927 74700.00000 0 -6061137.781 17320231.521 -17690959.280 10 0 60927 75600.00000 0 -6396761.083 15040861.499 -19557571.704 10 0 60927 76500.00000 0 -6946023.335 12591173.868 -21043448.992 10 0 60927 77400.00000 0 -7718632.507 10037092.264 -22119653.421 10 0 60927 78300.00000 0 -8712107.161 7446611.362 -22765237.338 10 0 60927 79200.00000 0 -9911717.199 4887151.999 -22967652.256 10 0 60927 80100.00000 0 -11290956.707 2422952.559 -22722992.491 10 0 60927 81000.00000 0 -12812529.582 112605.364 -22036068.792 10 0 60927 81900.00000 0 -14429806.922 -1993159.498 -20920310.716 10 0 60927 82800.00000 0 -16088695.091 -3853351.024 -19397499.934 10 0 60927 83700.00000 0 -17729836.010 -5438177.425 -17497339.901 10 0 60927 84600.00000 0 -19291047.129 -6730029.799 -15256870.603 10 0 60927 85500.00000 0 -20709898.352 -7723949.760 -12719740.096 99